Regional Weather Roundup
Issued by NWS

Home | Current Version | Previous Version | Text Only | Print | Product List | Glossary Off
Versions: 1 2 3 4 5 6 7 8 9 10 11 12 13 14 15 16 17 18 19 20 21 22 23 24 25 26 27 28 29 30 31 32 33 34 35 36 37 38 39 40 41 42 43 44 45 46 47 48 49 50

000
ASUS45 KTFX 011210
RWRMT
MONTANA REGIONAL WEATHER ROUNDUP
NATIONAL WEATHER SERVICE GREAT FALLS MT
600 AM MDT WED JUL 01 2015

NOTE: "FAIR" INDICATES FEW OR NO CLOUDS BELOW 12000 FEET WITH NO
SIGNIFICANT WEATHER AND/OR OBSTRUCTIONS TO VISIBILITY.

MTZ001>007-043-011300-
WEST OF THE DIVIDE

CITY           SKY/WX    TMP DP  RH WIND       PRES   REMARKS
KALISPELL      SUNNY     56  50  80 CALM      30.03R
MISSOULA       CLEAR     57  46  66 CALM      30.08R
BUTTE          CLEAR     52  44  74 SE5       30.21R
MULLAN PASS    CLEAR     64  40  41 CALM      30.21S
DEER LODGE       N/A     52  45  76 CALM      30.20R
EUREKA           N/A     61  55  82 CALM      30.05S
HAMILTON         N/A     63  50  63 S10       30.10R
RONAN            N/A     54  49  83 CALM      30.07S
$$

MTZ008-052>055-011300-
SOUTHWEST MONTANA

CITY           SKY/WX    TMP DP  RH WIND       PRES   REMARKS
BOZEMAN        CLEAR     62  48  60 CALM      30.12R
DILLON         CLEAR     62  45  53 SW6       30.15S
W YELLOWSTONE  PTCLDY    46  46 100 CALM      30.26R
THREE FORKS      N/A     56  56 100 CALM      30.09S
TWIN BRIDGES     N/A     57  44  62 CALM      30.12S
$$

MTZ009-010-012-014-046-048-049-054-011300-
EAST SLOPES AND CENTRAL MONTANA

CITY           SKY/WX    TMP DP  RH WIND       PRES   REMARKS
CUT BANK       PTCLDY    54  51  90 CALM      30.06S FOG
GREAT FALLS    CLEAR     56  51  84 SW6       30.06F
MALMSTROM AFB  CLEAR     62  54  76 W2        30.06F
HELENA         CLEAR     64  49  57 NW5       30.10R
$$

MTZ011-013-016-021-045-047-050-051-011300-
NORTH CENTRAL MONTANA

CITY           SKY/WX    TMP DP  RH WIND       PRES   REMARKS
HAVRE          CLEAR     53  51  93 S7        30.01F FOG
LEWISTOWN      PTCLDY    56  50  80 SE5       30.09S
CHINOOK          N/A     55  55 100 CALM      30.01F
FORT BENTON      N/A     57  52  82 CALM      30.03F
$$

MTZ017>020-022>027-061-062-011300-
NORTHEAST MONTANA

CITY           SKY/WX    TMP DP  RH WIND       PRES   REMARKS
GLASGOW        CLOUDY    61  57  87 NE7       29.98  FOG
JORDAN           N/A     61  56  83 NW3       29.98R
SIDNEY         CLOUDY    63  59  88 N6        29.97R
WOLF POINT     MOCLDY    63  58  83 NE3       29.98R HAZE
MALTA            N/A     56  51  83 CALM      29.97R
PLENTYWOOD       N/A     57  57 100 CALM      29.98R VSB 1/4
POPLAR           N/A     61  61 100 CALM      29.98R
$$

MTZ028>42-056>058-011300-
SOUTHCENTRAL AND SOUTHEAST MONTANA

CITY           SKY/WX    TMP DP  RH WIND       PRES   REMARKS
BAKER          PTCLDY    59  58  96 W6        29.97R FOG
BILLINGS       PTCLDY    68  50  52 NW3       30.06S
LIVINGSTON     CLEAR     56  48  74 NW6       30.12S
MILES CITY     PTCLDY    64  55  72 NW9       29.97R HAZE
FORSYTH          N/A     66  54  63 SW6       29.99R
LAUREL           N/A     64  47  54 CALM      30.04S
ROUNDUP          N/A     60  49  67 S8        29.97S
$$

REGIONAL REPORTS...DAKOTAS

CITY           SKY/WX    TMP DP  RH WIND       PRES   REMARKS
WILLISTON      FOG       60  59  96 NE7       29.97R VSB 3/4
MINOT          FOG       63  62  97 N6        29.93S VSB<1/4
DICKINSON      CLOUDY    62  60  93 CALM      29.94R FOG
BEACH          LGT RAIN  61  61 100 NE6       29.97R
CROSBY         FOG       59  59 100 N3        29.98R VSB<1/4
BISMARCK       CLOUDY    64  62  93 NE6       29.93R FOG
GRAND FORKS    SUNNY     58  54  86 CALM      29.93R
FARGO          MOSUNNY   63  60  90 S3        29.94R
BUFFALO SD       N/A     62  58  86 NW13      29.88R
RAPID CITY     CLEAR     66  58  75 NW9       29.94R
$$

REGIONAL REPORTS...WYOMING/IDAHO/WASHINGTON

CITY           SKY/WX    TMP DP  RH WIND       PRES   REMARKS
GILLETTE       CLEAR     61  50  67 CALM      30.07S
SHERIDAN       PTCLDY    59  50  72 CALM      30.07S
BUFFALO WY     CLEAR     62  47  57 W8        30.14R
CODY           CLEAR     61  48  63 SW5       30.13S
YELLOWSTONE LA   N/A     49  45  86 CALM      30.35S
IDAHO FALLS    MOCLDY    59  56  89 S3        30.10S
SALMON         CLEAR     57  50  77 CALM      30.11R
BOISE          CLEAR     71  52  50 NW3       29.99S
SPOKANE        PTCLDY    67  47  48 S7        29.98S
$$

REGIONAL REPORTS...ALBERTA

CITY           SKY/WX    TMP DP  RH WIND       PRES   REMARKS
EDMONTON       LGT RAIN  59  52  77 N8        29.99S
CALGARY        MOCLDY    57  55  94 W6        30.09R
LETHBRIDGE     MOCLDY    61  59  94 NW5       30.04R FOG
WATERTON GATE    N/A     54  54 100 S3          N/A
$$

REGIONAL REPORTS...SASKATCHEWAN

CITY           SKY/WX    TMP DP  RH WIND       PRES   REMARKS
SWIFT CURRENT  PTCLDY    54 N/A N/A SW8       30.00S VSB 5/8
REGINA         FOG       50  50 100 SW5       29.98S VSB 3/4
SASKATOON      PTCLDY    59  57  94 W6        29.96S FOG
CYPRESS HILLS    N/A     54  50  87 SW3         N/A
VAL MARIE        N/A     52  50  93 E2          N/A
ROCKGLEN         N/A     54  52  94 NW2         N/A
ASSINIBOIA       N/A     63  63 100 NW8         N/A
$$


USA.gov is the U.S. government's official web portal to all federal, state and local government web resources and services.